SXS856 LTCG-LTFO

Flight info

Callsign SXS856
Flight time 0h 21m
Altitude 15000
Route ATPUM DCT ZUBRE
Aircraft B738/M-SDGIJ1LRWY/SB1

Departure

Time 2026-04-29 20:17
Airport Trabzon International Airport (LTCG)

Arrival

Time 2026-04-29 20:39
Airport Rize–Artvin Airport (LTFO)
Time Latitude Longitude Altitude Speed Heading
2026-04-29 19:39 40.99462 39.78417 111 ft 0 kts 202°
2026-04-29 19:54 40.99462 39.78418 111 ft 0 kts 202°
2026-04-29 20:07 40.99464 39.78418 111 ft 1 kts 202°
2026-04-29 20:07 40.99477 39.78426 111 ft 2 kts 203°
2026-04-29 20:07 40.99491 39.78433 111 ft 2 kts 202°
2026-04-29 20:07 40.99505 39.78440 111 ft 2 kts 202°
2026-04-29 20:08 40.99516 39.78453 111 ft 2 kts 249°
2026-04-29 20:08 40.99518 39.78466 111 ft 2 kts 275°
2026-04-29 20:08 40.99515 39.78479 111 ft 1 kts 297°
2026-04-29 20:08 40.99514 39.78482 111 ft 0 kts 294°
2026-04-29 20:12 40.99519 39.78465 111 ft 5 kts 294°
2026-04-29 20:12 40.99537 39.78409 111 ft 7 kts 292°
2026-04-29 20:12 40.99560 39.78332 111 ft 10 kts 292°
2026-04-29 20:12 40.99589 39.78238 111 ft 11 kts 292°
2026-04-29 20:13 40.99621 39.78138 111 ft 11 kts 291°
2026-04-29 20:13 40.99640 39.78071 111 ft 11 kts 291°
2026-04-29 20:13 40.99681 39.77937 112 ft 11 kts 291°
2026-04-29 20:13 40.99712 39.77836 112 ft 11 kts 292°
2026-04-29 20:14 40.99743 39.77737 112 ft 11 kts 292°
2026-04-29 20:14 40.99775 39.77638 112 ft 11 kts 292°
2026-04-29 20:14 40.99806 39.77537 112 ft 11 kts 293°
2026-04-29 20:14 40.99872 39.77491 112 ft 11 kts
2026-04-29 20:15 40.99937 39.77539 112 ft 10 kts 65°
2026-04-29 20:15 40.99936 39.77579 112 ft 0 kts 111°
2026-04-29 20:16 40.99936 39.77580 112 ft 0 kts 111°
2026-04-29 20:16 40.99929 39.77602 112 ft 16 kts 112°
2026-04-29 20:16 40.99788 39.78058 112 ft 89 kts 112°
2026-04-29 20:16 40.99470 39.79086 112 ft 148 kts 112°
2026-04-29 20:17 40.99063 39.80391 641 ft 153 kts 112°
2026-04-29 20:17 40.98848 39.81805 1162 ft 164 kts 86°
2026-04-29 20:17 40.98843 39.83271 1779 ft 166 kts 93°
2026-04-29 20:17 40.98737 39.84839 2238 ft 180 kts 95°
2026-04-29 20:18 40.98582 39.86578 2682 ft 197 kts 97°
2026-04-29 20:18 40.98378 39.88413 3233 ft 209 kts 98°
2026-04-29 20:18 40.98154 39.90350 3735 ft 224 kts 95°
2026-04-29 20:18 40.98298 39.92458 4140 ft 241 kts 69°
2026-04-29 20:19 40.99119 39.94386 4905 ft 243 kts 56°
2026-04-29 20:19 41.00103 39.96258 5373 ft 260 kts 55°
2026-04-29 20:19 41.01150 39.98324 5917 ft 274 kts 57°
2026-04-29 20:19 41.02132 40.00422 6814 ft 273 kts 58°
2026-04-29 20:20 41.03115 40.02570 7569 ft 278 kts 58°
2026-04-29 20:20 41.04126 40.04772 8304 ft 285 kts 58°
2026-04-29 20:20 41.05163 40.07014 9083 ft 290 kts 58°
2026-04-29 20:20 41.06232 40.09316 9869 ft 295 kts 57°
2026-04-29 20:21 41.07301 40.11612 10647 ft 299 kts 57°
2026-04-29 20:21 41.08405 40.13983 11476 ft 304 kts 57°
2026-04-29 20:21 41.09502 40.16351 12215 ft 310 kts 57°
2026-04-29 20:21 41.10645 40.18821 13047 ft 314 kts 56°
2026-04-29 20:22 41.11796 40.21305 13809 ft 320 kts 56°
2026-04-29 20:22 41.12965 40.23824 14558 ft 326 kts 56°
2026-04-29 20:22 41.14148 40.26373 14974 ft 327 kts 56°
2026-04-29 20:22 41.15358 40.28981 15208 ft 332 kts 56°
2026-04-29 20:23 41.16554 40.31564 15186 ft 329 kts 56°
2026-04-29 20:23 41.17741 40.34131 15194 ft 327 kts 56°
2026-04-29 20:23 41.18940 40.36726 15178 ft 328 kts 56°
2026-04-29 20:23 41.20037 40.39380 15179 ft 330 kts 61°
2026-04-29 20:24 41.21050 40.42079 15191 ft 330 kts 60°
2026-04-29 20:24 41.22170 40.44761 15190 ft 329 kts 57°
2026-04-29 20:24 41.23335 40.47357 15189 ft 328 kts 56°
2026-04-29 20:24 41.24517 40.49929 15187 ft 329 kts 56°
2026-04-29 20:25 41.25717 40.52537 15198 ft 329 kts 56°
2026-04-29 20:25 41.26902 40.55132 15185 ft 329 kts 56°
2026-04-29 20:25 41.28086 40.57744 15133 ft 329 kts 56°
2026-04-29 20:25 41.29269 40.60360 14734 ft 332 kts 56°
2026-04-29 20:26 41.30457 40.62990 14272 ft 332 kts 56°
2026-04-29 20:26 41.31640 40.65613 13848 ft 330 kts 57°
2026-04-29 20:26 41.32824 40.68243 13420 ft 328 kts 58°
2026-04-29 20:26 41.33983 40.70826 12999 ft 327 kts 58°
2026-04-29 20:27 41.35147 40.73420 12564 ft 325 kts 58°
2026-04-29 20:27 41.35536 40.74289 12434 ft 324 kts 58°
2026-04-29 20:27 41.37444 40.78553 11713 ft 321 kts 58°
2026-04-29 20:27 41.38572 40.81078 11307 ft 320 kts 58°
2026-04-29 20:28 41.39706 40.83619 10877 ft 318 kts 59°
2026-04-29 20:28 41.40670 40.86234 10456 ft 316 kts 70°
2026-04-29 20:28 41.41235 40.89031 10171 ft 306 kts 79°
2026-04-29 20:28 41.41574 40.91730 10037 ft 291 kts 82°
2026-04-29 20:29 41.41863 40.94373 9714 ft 287 kts 82°
2026-04-29 20:29 41.42166 40.96978 9353 ft 286 kts 81°
2026-04-29 20:29 41.42495 40.99601 8987 ft 286 kts 80°
2026-04-29 20:29 41.42840 41.02206 8619 ft 284 kts 79°
2026-04-29 20:30 41.43187 41.04764 8262 ft 283 kts 79°
2026-04-29 20:30 41.43537 41.07344 7897 ft 281 kts 79°
2026-04-29 20:30 41.43710 41.09922 7549 ft 280 kts 91°
2026-04-29 20:30 41.43229 41.12378 7195 ft 278 kts 119°
2026-04-29 20:31 41.41937 41.14256 6860 ft 275 kts 144°
2026-04-29 20:31 41.40334 41.15640 6501 ft 274 kts 147°
2026-04-29 20:31 41.38744 41.16993 6166 ft 272 kts 146°
2026-04-29 20:31 41.37157 41.18379 5809 ft 271 kts 146°
2026-04-29 20:32 41.35600 41.19746 5545 ft 266 kts 147°
2026-04-29 20:32 41.33975 41.20836 5442 ft 255 kts 161°
2026-04-29 20:32 41.32265 41.20964 5353 ft 245 kts 193°
2026-04-29 20:32 41.31225 41.20374 5226 ft 241 kts 213°
2026-04-29 20:33 41.29558 41.18436 4898 ft 238 kts 223°
2026-04-29 20:33 41.28340 41.16975 4650 ft 237 kts 221°
2026-04-29 20:33 41.27115 41.15546 4541 ft 228 kts 221°
2026-04-29 20:33 41.25956 41.14182 4451 ft 215 kts 223°
2026-04-29 20:34 41.25045 41.12677 4325 ft 205 kts 243°
2026-04-29 20:34 41.24595 41.10908 4074 ft 202 kts 256°
2026-04-29 20:34 41.24215 41.09129 3799 ft 203 kts 252°
2026-04-29 20:34 41.23768 41.07366 3574 ft 200 kts 251°
2026-04-29 20:35 41.23320 41.05664 3467 ft 190 kts 251°
2026-04-29 20:35 41.22892 41.03994 3219 ft 190 kts 251°
2026-04-29 20:35 41.22467 41.02324 2916 ft 193 kts 251°
2026-04-29 20:35 41.22036 41.00644 2610 ft 195 kts 251°
2026-04-29 20:36 41.21611 40.98993 2309 ft 185 kts 251°
2026-04-29 20:36 41.21201 40.97404 2016 ft 175 kts 251°
2026-04-29 20:36 41.20822 40.95929 1742 ft 165 kts 251°
2026-04-29 20:36 41.20464 40.94539 1495 ft 154 kts 251°
2026-04-29 20:37 41.20128 40.93229 1215 ft 147 kts 251°
2026-04-29 20:37 41.19803 40.91996 1010 ft 142 kts 250°
2026-04-29 20:37 41.19477 40.90752 797 ft 141 kts 250°
2026-04-29 20:37 41.19167 40.89537 579 ft 140 kts 251°
2026-04-29 20:38 41.18854 40.88306 358 ft 139 kts 250°
2026-04-29 20:38 41.18552 40.87112 150 ft 138 kts 251°
2026-04-29 20:38 41.18246 40.85924 3 ft 120 kts 249°
2026-04-29 20:38 41.18055 40.85184 2 ft 51 kts 251°
2026-04-29 20:39 41.17956 40.84795 2 ft 43 kts 251°
2026-04-29 20:39 41.17876 40.84480 2 ft 19 kts 252°
2026-04-29 20:39 41.17810 40.84403 2 ft 14 kts 169°
2026-04-29 20:39 41.17717 40.84441 2 ft 14 kts 160°
2026-04-29 20:40 41.17646 40.84474 2 ft 4 kts 160°
2026-04-29 20:40 41.17618 40.84496 2 ft 4 kts 145°
2026-04-29 20:40 41.17588 40.84516 2 ft 4 kts 159°
2026-04-29 20:40 41.17555 40.84531 2 ft 5 kts 161°
2026-04-29 20:41 41.17549 40.84534 2 ft 0 kts 161°